[TLELIST] Archives

 

[TLELIST] Current TLEs

February 25th 2023 PST

HST 1 20580U 90037B 23055.96658531 .00004373 00000-0 23715-3 0 9990 2 20580 28.4698 294.1177 0002198 252.1429 126.6395 15.12082321604456 ISS (ZARYA) 1 25544U 98067A 23056.39727578 .00024502 00000-0 44615-3 0 9990 2 25544 51.6395 162.2594 0005553 31.0555 80.2188 15.49330183384455 CXO 1 25867U 99040B 23056.90394271 .00000669 00000-0 00000+0 0 9991 2 25867 39.0724 210.5931 9019913 251.3645 0.4870 0.37809176 23919 ...Continue Reading

[TLELIST] Current TLEs

February 24th 2023 PST

HST 1 20580U 90037B 23054.85001091 .00005246 00000-0 28660-3 0 9994 2 20580 28.4701 301.5325 0002250 237.4160 171.2372 15.12073055604282 ISS (ZARYA) 1 25544U 98067A 23055.36715531 .00017001 00000-0 31285-3 0 9997 2 25544 51.6387 167.3561 0005418 22.9195 99.0673 15.49284681384295 CXO 1 25867U 99040B 23056.90394271 .00000669 00000-0 00000+0 0 9991 2 25867 39.0724 210.5931 9019913 251.3645 0.4870 0.37809176 23919 ...Continue Reading

[TLELIST] Current TLEs

February 24th 2023 PST

HST 1 20580U 90037B 23054.85001091 .00005246 00000-0 28660-3 0 9994 2 20580 28.4701 301.5325 0002250 237.4160 171.2372 15.12073055604282 ISS (ZARYA) 1 25544U 98067A 23055.36715531 .00017001 00000-0 31285-3 0 9997 2 25544 51.6387 167.3561 0005418 22.9195 99.0673 15.49284681384295 CXO 1 25867U 99040B 23056.90394271 .00000669 00000-0 00000+0 0 9991 2 25867 39.0724 210.5931 9019913 251.3645 0.4870 0.37809176 23919 ...Continue Reading

[TLELIST] Current TLEs

February 24th 2023 PST

HST 1 20580U 90037B 23054.85001091 .00005246 00000-0 28660-3 0 9994 2 20580 28.4701 301.5325 0002250 237.4160 171.2372 15.12073055604282 ISS (ZARYA) 1 25544U 98067A 23055.36715531 .00017001 00000-0 31285-3 0 9997 2 25544 51.6387 167.3561 0005418 22.9195 99.0673 15.49284681384295 CXO 1 25867U 99040B 23056.90394271 .00000669 00000-0 00000+0 0 9991 2 25867 39.0724 210.5931 9019913 251.3645 0.4870 0.37809176 23919 ...Continue Reading

[TLELIST] Current TLEs

February 24th 2023 PST

HST 1 20580U 90037B 23054.85001091 .00005246 00000-0 28660-3 0 9994 2 20580 28.4701 301.5325 0002250 237.4160 171.2372 15.12073055604282 ISS (ZARYA) 1 25544U 98067A 23055.36715531 .00017001 00000-0 31285-3 0 9997 2 25544 51.6387 167.3561 0005418 22.9195 99.0673 15.49284681384295 CXO 1 25867U 99040B 23056.90394271 .00000669 00000-0 00000+0 0 9991 2 25867 39.0724 210.5931 9019913 251.3645 0.4870 0.37809176 23919 ...Continue Reading

[TLELIST] Current TLEs

February 24th 2023 PST

HST 1 20580U 90037B 23054.85001091 .00005246 00000-0 28660-3 0 9994 2 20580 28.4701 301.5325 0002250 237.4160 171.2372 15.12073055604282 ISS (ZARYA) 1 25544U 98067A 23055.36715531 .00017001 00000-0 31285-3 0 9997 2 25544 51.6387 167.3561 0005418 22.9195 99.0673 15.49284681384295 CXO 1 25867U 99040B 23056.90394271 .00000669 00000-0 00000+0 0 9991 2 25867 39.0724 210.5931 9019913 251.3645 0.4870 0.37809176 23919 ...Continue Reading

[TLELIST] Current TLEs

February 23rd 2023 PST

HST 1 20580U 90037B 23054.13832940 .00005284 00000-0 28881-3 0 9997 2 20580 28.4703 306.2592 0002257 229.0328 257.9226 15.12066264604433 ISS (ZARYA) 1 25544U 98067A 23054.39969716 .00016427 00000-0 30296-3 0 9997 2 25544 51.6390 172.1471 0005518 18.5460 104.0061 15.49250053384148 CXO 1 25867U 99040B 23048.97315648 .00000890 00000-0 00000-0 0 9997 2 25867 39.1990 211.4474 9009277 250.7095 0.7055 0.37812765 12735 ...Continue Reading

[TLELIST] Current TLEs

February 23rd 2023 PST

HST 1 20580U 90037B 23054.13832940 .00005284 00000-0 28881-3 0 9997 2 20580 28.4703 306.2592 0002257 229.0328 257.9226 15.12066264604433 ISS (ZARYA) 1 25544U 98067A 23054.39969716 .00016427 00000-0 30296-3 0 9997 2 25544 51.6390 172.1471 0005518 18.5460 104.0061 15.49250053384148 CXO 1 25867U 99040B 23048.97315648 .00000890 00000-0 00000-0 0 9997 2 25867 39.1990 211.4474 9009277 250.7095 0.7055 0.37812765 12735 ...Continue Reading

[TLELIST] Current TLEs

February 22nd 2023 PST

HST 1 20580U 90037B 23053.08333543 .00005621 00000-0 30801-3 0 9995 2 20580 28.4706 313.2661 0002299 216.7368 276.0351 15.12056081604284 ISS (ZARYA) 1 25544U 98067A 23053.36606105 .00016605 00000-0 30653-3 0 9998 2 25544 51.6385 177.2603 0005320 15.9334 97.9818 15.49214405383989 CXO 1 25867U 99040B 23048.97315648 .00000890 00000-0 00000-0 0 9997 2 25867 39.1990 211.4474 9009277 250.7095 0.7055 0.37812765 12735 ...Continue Reading

[TLELIST] Current TLEs

February 21st 2023 PST

HST 1 20580U 90037B 23051.43653589 .00005122 00000-0 27985-3 0 9992 2 20580 28.4705 324.2027 0002378 197.0494 313.7753 15.12039074603760 ISS (ZARYA) 1 25544U 98067A 23052.38451573 .00021406 00000-0 39294-3 0 9991 2 25544 51.6386 182.1199 0005240 12.7328 23.3861 15.49187897383833 CXO 1 25867U 99040B 23048.97315648 .00000890 00000-0 00000-0 0 9997 2 25867 39.1990 211.4474 9009277 250.7095 0.7055 0.37812765 12735 ...Continue Reading
  • This mailing list is a public mailing list - anyone may join or leave, at any time.
  • This mailing list is announce-only.

International Space Station (ISS) / Hubble Space Telescope (HST) / Chandra X-Ray Observatory Orbital Data via EMAIL

Privacy Policy:

Private list